Flag for United Kingdom Weather past 2 weeks in Oxford, England, United Kingdom

Now
52 °F

Partly cloudy.


Feels Like: 47 °F
Forecast: 50 / 54 °F
Wind: 14 mph from Southwest

Location: Benson

Current Time: Dec 23, 2014 at 12:23:36 AM

Latest Report: Dec 22, 2014 at 11:50 PM


Visibility: N/A

Pressure: 30.07 "Hg

Humidity: 88%

Dew point: 48 °F

Location of OxfordLocation

Historic Weather in Oxford — Graph

°F

Oxford temperature yesterday

Maximum temperature yesterday: 55 °F (at 5:50 AM)
Minimum temperature yesterday: 52 °F (at 5:50 PM)
Average temperature yesterday: 53 °F

Past Weeks' High & Low Weather Summary

 TemperatureHumidityPressure
High55 °F (Dec 17, 12:50 PM)100% (Dec 8, 12:50 AM)30.45 "Hg (Dec 8, 12:50 AM)
Low23 °F (Dec 13, 8:50 AM)58% (Dec 19, 2:50 PM)29.24 "Hg (Dec 12, 5:50 AM)
Average44 °F85%29.95 "Hg
* Reported Dec 7 10:50 PM — Dec 22 10:50 PM, Oxford, Weather by CustomWeather, © 2014

Note: Actual official high and low records may vary slightly from our data, if they occured in-between our weather recording intervals... More about our weather records

Advertising

Oxford weather history for previous 24 hours

 ConditionsComfort  
Time TempWeatherWind HumidityBarometerVisibility
10:50 PM
Dec 22
52 °FOvercast.15 mph88%30.07 "HgN/A
9:50 PM52 °FOvercast.20 mph88%30.07 "HgN/A
8:50 PM52 °FOvercast.16 mph88%30.07 "HgN/A
7:50 PM52 °FPassing clouds.17 mph88%30.07 "HgN/A
6:50 PM52 °FClear.20 mph82%30.04 "HgN/A
5:50 PM52 °FPassing clouds.16 mph88%30.04 "HgN/A
4:50 PM54 °FPartly cloudy.17 mph82%30.04 "HgN/A
3:50 PM54 °FPartly sunny.20 mph88%30.04 "HgN/A
2:50 PM54 °FOvercast.20 mph88%30.04 "HgN/A
1:50 PM54 °FOvercast.17 mph94%30.04 "HgN/A
12:50 PM54 °FOvercast.18 mph88%30.04 "HgN/A
11:50 AM54 °FOvercast.18 mph88%30.07 "HgN/A
10:50 AM54 °FPartly sunny.18 mph88%30.07 "HgN/A
9:50 AM54 °FPartly sunny.17 mph88%30.07 "HgN/A
8:50 AM54 °FOvercast.18 mph77%30.07 "HgN/A
7:50 AM55 °FOvercast.20 mph72%30.07 "HgN/A
6:50 AM55 °FPassing clouds.15 mph82%30.04 "HgN/A
5:50 AM55 °FPassing clouds.14 mph82%30.04 "HgN/A
4:50 AM54 °FPassing clouds.17 mph88%30.07 "HgN/A
3:50 AM54 °FOvercast.16 mph88%30.07 "HgN/A
2:50 AM54 °FLow clouds.15 mph88%30.09 "HgN/A
1:50 AM54 °FLow clouds.15 mph88%30.09 "HgN/A
12:50 AM54 °FOvercast.16 mph88%30.12 "HgN/A
Weather by CustomWeather, © 2014

See weather overviewHow to use our weather pages